Dewpoint
35 35 28 29 31 32 33 32 29 30 32 31 32 32 32 31 33 40 38 41 48 54 55 53 55 55 55 55 54 51 49 48 47 46 45 45 45 45 45 44 42 41 40 41
31 29 29 31 31 32 31 30 30 29 33 33 32 30 29 30 35 39 43 44 48 53 54 52 54 54 54 54 53 51 49 49 47 46 45 47 46 46 46 47 45 43 42 44
29 28 29 28 29 26 26 25 26 25 30 34 33 30 28 33 36 43 43 45 47 52 54 52 53 53 53 53 54 52 49 48 48 47 48 49 49 50 47 48 47 46 44 46
28 28 27 25 25 26 25 27 26 26 27 30 31 29 23 32 38 42 44 46 48 50 54 53 52 53 53 52 53 54 53 50 49 49 48 46 47 46 46 48 49 49 47 47
24 26 25 25 23 26 24 28 28 28 28 31 26 30 27 32 34 38 43 46 48 49 52 54 53 54 54 53 53 54 54 54 52 49 47 47 47 48 49 47 47 47 47 48
27 27 28 26 27 27 28 27 26 28 26 28 23 27 21 27 30 33 39 46 49 50 52 53 55 55 54 54 54 53 52 52 53 50 49 49 49 47 47 47 46 46 47 48
25 24 26 29 26 28 26 24 30 23 26 18 21 23 25 26 30 35 37 42 48 50 51 52 53 55 55 54 53 53 51 51 52 53 52 50 48 48 46 46 46 46 46 47
30 30 20 27 25 24 25 25 26 16 15 17 20 22 30 27 32 34 35 38 44 48 50 51 52 53 54 54 54 53 52 50 51 51 50 48 47 47 46 45 46 46 46 46
23 18 23 26 27 28 23 24 23 21 21 25 19 20 25 28 28 32 33 34 37 43 47 50 51 54 55 55 54 53 51 49 48 48 48 48 48 48 47 47 47 47 46 42
23 18 21 23 27 30 27 25 23 24 19 16 14 16 27 35 35 30 33 33 34 38 43 48 50 50 52 53 53 53 52 50 48 48 47 47 47 47 48 47 47 47 44 39
25 22 19 21 21 20 22 20 19 21 20 17 8 18 24 38 31 32 32 34 35 37 41 45 48 48 48 48 48 48 48 47 48 48 47 47 48 48 47 47 46 44 42 40
25 22 20 15 22 25 24 20 18 17 14 14 12 20 25 29 31 31 32 34 36 38 40 41 42 43 44 46 47 48 48 47 48 47 47 47 47 47 46 44 43 40 39 38
22 19 19 17 22 24 24 20 20 19 19 18 12 18 22 28 27 29 32 33 36 37 39 40 40 40 41 42 44 45 46 46 47 47 46 46 46 46 44 43 40 38 36 35
27 21 16 16 16 17 17 18 19 20 21 15 11 8 18 16 19 20 31 33 35 37 38 38 39 39 40 40 42 43 44 45 46 46 45 45 44 43 42 40 38 36 34 34
26 23 25 22 21 20 21 21 20 20 20 16 12 13 15 17 23 21 31 33 35 36 37 38 38 38 39 40 41 41 43 43 44 44 44 43 42 41 39 37 35 34 34 34
28 25 24 22 21 21 21 21 21 20 20 19 19 18 18 21 27 27 32 33 34 35 36 37 39 39 39 40 40 41 41 42 42 41 41 41 39 37 35 34 34 34 34 34
26 26 24 20 23 21 20 18 21 21 20 20 18 18 20 21 25 30 32 33 33 34 35 36 38 38 39 39 40 41 41 41 40 40 39 37 34 33 34 34 34 35 34 34
25 25 25 25 25 22 21 23 23 21 20 21 20 19 21 22 25 25 26 25 25 28 30 32 34 36 38 38 37 39 40 40 38 38 36 34 34 33 34 35 35 35 34 35
28 26 24 23 22 21 20 21 21 21 19 22 21 22 22 23 25 25 27 28 27 27 27 27 27 28 32 36 35 36 36 37 36 35 34 34 33 33 33 34 35 35 35 35
29 28 25 24 22 17 19 21 21 21 18 24 24 23 23 25 22 25 28 28 29 29 30 29 29 29 30 31 33 35 34 35 34 35 36 35 35 34 34 35 35 35 34 31
27 27 25 25 28 25 24 23 23 17 21 26 26 25 26 24 26 27 27 28 32 32 32 32 31 30 31 31 31 32 33 33 35 36 35 35 34 35 35 36 35 33 30 27
25 26 26 26 29 25 29 24 23 25 29 29 29 30 28 29 29 29 30 31 33 33 33 34 34 34 33 33 32 32 33 35 34 34 34 34 34 33 34 35 33 29 24 23
22 24 27 28 28 28 31 31 29 30 30 31 31 31 30 30 29 31 32 33 33 33 33 33 33 33 34 33 33 32 34 33 33 33 33 33 32 30 30 31 30 27 22 21
25 28 30 31 32 32 34 33 36 32 31 32 31 30 30 32 32 32 33 34 33 33 33 33 34 33 33 33 34 33 32 32 32 30 29 27 25 23 23 23 26 26 21 18
29 29 29 35 36 36 37 38 37 32 32 32 33 33 33 33 33 33 33 32 33 33 33 34 33 34 34 33 30 29 29 29 29 27 24 23 22 21 21 20 19 18 18 21
31 31 35 33 36 38 36 31 33 32 33 34 34 34 34 33 32 32 31 31 30 31 31 32 32 31 29 28 27 26 25 24 22 22 25 26 24 24 24 24 22 30 30 31
Lifted_Index
2 2 1 1 1 1 0 0 -0 -0 -0 0 -0 -0 0 1 0 -0 0 1 1 1 0 -0 -2 -2 -3 -2 -2 -2 -1 -0 3 7 8 9 9 9 9 10 10 11 11 12
2 2 2 2 1 1 1 0 -0 -0 -0 -0 -0 -0 -0 0 -0 -1 -0 0 1 1 0 -0 -1 -2 -3 -2 -2 -1 -1 -0 3 7 8 8 9 9 9 9 10 10 11 11
2 2 2 2 2 1 1 0 0 0 0 -0 -1 -0 -0 -1 -1 -1 -1 -1 0 0 0 -0 -1 -2 -2 -2 -1 -1 -0 1 4 7 8 8 8 8 8 9 9 10 10 11
3 3 3 2 2 1 1 1 1 1 0 -0 -0 -1 -1 -1 -1 -2 -2 -1 -1 -0 -0 -1 -1 -2 -2 -2 -1 -0 0 2 5 7 8 8 8 8 8 8 8 9 10 10
3 3 3 2 2 1 1 1 0 0 -0 -0 -0 -1 -1 -1 -2 -2 -2 -2 -2 -2 -1 -1 -1 -1 -2 -2 -1 -0 1 2 5 7 8 8 8 7 8 8 8 9 9 9
4 4 4 3 2 2 1 0 -0 -0 -0 -0 0 -0 -1 -1 -1 -1 -2 -3 -3 -3 -3 -2 -2 -1 -1 -1 -0 0 0 1 4 6 7 8 8 7 8 8 8 8 9 9
3 3 4 4 3 2 2 1 -0 -0 -0 -0 0 1 0 1 0 -1 -1 -2 -3 -4 -3 -3 -2 -1 -0 0 1 1 1 1 2 4 6 7 8 8 8 8 8 8 8 8
3 3 4 4 4 3 2 2 1 0 0 0 1 1 1 2 2 1 -0 -1 -2 -3 -3 -3 -2 -1 -1 0 1 1 1 1 2 2 5 7 8 8 8 8 8 8 8 9
3 3 4 5 5 4 3 3 2 1 1 0 1 1 2 3 3 2 1 0 -1 -1 -2 -2 -2 -1 -1 -0 0 0 1 1 1 3 5 7 7 7 7 7 8 8 8 9
4 4 4 5 5 4 4 4 3 2 1 0 1 1 2 3 3 3 3 2 1 -0 -1 -1 -1 -1 -1 -1 -0 0 1 1 2 3 5 6 6 6 7 7 8 8 8 9
5 4 4 4 4 4 4 4 4 3 2 1 1 2 3 4 4 4 3 3 2 1 0 0 0 1 1 0 0 1 1 2 3 4 5 5 5 6 6 7 7 8 8 8
5 4 3 3 4 4 4 4 4 3 2 2 2 3 4 5 5 4 4 4 3 2 1 1 1 1 1 1 1 1 2 3 3 4 4 5 5 5 6 6 7 7 8 8
5 4 3 3 3 4 3 3 3 3 3 2 2 3 5 5 5 5 5 4 4 3 2 2 1 2 2 2 2 3 3 3 4 4 5 6 6 6 6 7 7 8 8 9
5 4 3 2 3 3 3 3 3 3 3 3 3 4 5 5 6 6 5 5 4 4 3 3 3 3 3 3 4 5 5 5 6 6 7 7 7 7 7 7 8 8 9 10
5 4 3 3 3 3 3 3 3 3 3 3 4 4 5 6 6 6 6 5 5 5 5 5 5 5 5 5 6 7 7 7 8 8 8 8 8 8 8 8 9 9 10 10
4 4 4 3 3 3 2 3 3 4 4 4 4 5 6 6 6 6 6 6 5 5 5 5 6 6 6 6 7 7 8 8 8 8 8 8 8 8 9 9 10 10 11 11
3 3 3 3 3 2 2 3 4 4 4 4 4 5 6 7 7 7 6 6 6 6 6 6 6 6 6 7 7 7 8 8 8 8 8 8 9 9 10 10 10 10 11 11
3 3 3 3 2 2 3 4 4 4 4 5 5 6 6 7 7 7 7 7 7 7 7 7 7 7 7 7 7 8 8 8 8 9 9 9 10 10 10 10 10 11 11 11
2 2 2 2 2 2 3 4 5 4 5 5 6 6 7 7 7 7 7 7 7 7 7 7 7 7 8 8 8 8 8 9 9 9 10 10 10 10 10 10 11 11 12 12
2 2 2 2 2 2 3 5 5 4 4 6 7 7 7 7 6 7 7 7 7 7 7 7 7 7 8 8 8 8 8 9 9 9 10 10 10 10 10 11 11 11 11 12
3 2 2 2 2 2 4 5 5 4 5 6 7 7 7 6 7 7 7 8 8 8 8 8 8 8 8 8 9 9 9 9 9 10 10 10 10 10 10 11 11 11 11 12
3 2 2 2 2 3 4 4 4 4 5 6 6 6 6 6 6 7 7 8 8 8 8 8 8 8 8 8 8 9 9 9 9 10 10 10 10 10 11 11 11 12 12 12
3 3 3 3 3 3 3 4 4 5 5 5 6 6 6 6 6 7 7 8 8 8 8 8 8 8 8 8 8 9 9 9 9 9 9 10 10 11 11 12 12 12 13 13
3 3 3 3 3 3 3 4 4 5 5 6 6 6 6 6 7 7 8 8 8 8 8 8 8 8 8 8 8 9 9 9 9 9 9 10 11 11 12 13 13 14 14 14
3 3 3 3 3 3 3 4 4 5 5 6 6 7 7 7 8 8 8 8 8 8 8 9 9 8 8 8 8 9 9 9 9 9 10 10 11 11 12 13 14 14 13 12
2 2 3 3 3 3 3 4 5 5 6 6 7 7 8 8 8 8 8 8 8 9 9 9 9 8 8 8 8 9 9 9 9 9 10 10 10 11 12 13 13 12 12 11